Location: Sternwarte ZA, Rosenfeld-Brittheim
(48.2889°N, 8.6789°E)
Time: 23:03:36
(UTC+02:00)

N. Korean satellite - Visible Passes

Search period start: 22 October 2017 00:00
Search period end: 31 October 2017 23:00
Orbit: 459 x 517 km, 97.2° (Epoch: 22 October)

Date Brightness Start Highest point End Pass type
(mag) Time Alt. Az. Time Alt. Az. Time Alt. Az.
22 Oct 6.4 19:09:35 10° SSE 19:13:02 65° ENE 19:16:30 10° N visible
23 Oct 7.1 18:46:35 10° SE 18:49:46 33° ENE 18:52:56 10° N visible
23 Oct 9.5 20:20:59 10° SW 20:23:25 18° W 20:25:51 10° NW visible
24 Oct 8.4 19:56:45 10° SSW 19:59:55 32° W 20:03:04 10° NNW visible
25 Oct 9.9 07:20:55 10° NE 07:23:03 15° E 07:25:12 10° SE visible
25 Oct 7.0 19:33:02 10° S 19:36:29 62° W 19:39:56 10° NNW visible
26 Oct 6.4 19:09:41 10° SSE 19:13:08 66° ENE 19:16:34 10° N visible
27 Oct 7.1 18:46:41 10° SE 18:49:50 34° ENE 18:53:00 10° N visible
27 Oct 9.5 20:21:06 10° SW 20:23:30 17° W 20:25:53 10° NW visible
28 Oct 8.4 19:56:51 10° SSW 19:59:58 31° W 20:03:07 10° NNW visible
29 Oct 9.9 06:20:55 10° NE 06:23:07 16° E 06:25:21 10° SE visible
29 Oct 7.0 18:33:06 10° S 18:36:32 62° W 18:39:58 10° NNW visible
30 Oct 6.4 18:09:44 10° SSE 18:13:09 66° ENE 18:16:36 10° N visible
31 Oct 7.1 17:46:42 10° SE 17:49:51 34° ENE 17:53:01 10° N visible
31 Oct 9.5 19:21:09 10° SW 19:23:31 17° W 19:25:53 10° NW visible
